Databases of registered domains

Download a list of 262 624 174 domains in 1067 zones!

Frequency of updating the database is 1-2 months.

Contacts: purecrawlcom@gmail.com

# Tlds File size Number of domains Updated Downloads
1 all in one 1 GB 262,624,174 2024-01-19 697 Download
2 3l (3x level) 27 MB 6,272,532 2024-01-19 293 Download
3 com 585 MB 157,793,629 2024-01-19 311 Download
4 net 49 MB 12,923,672 2024-01-19 189 Download
5 org 44 MB 10,767,899 2024-01-19 159 Download
6 de 43 MB 10,661,097 2024-01-19 131 Download
7 ru 19 MB 5,521,123 2024-02-21 874 Download
8 info 16 MB 3,649,164 2024-01-19 122 Download
9 xyz 13 MB 3,301,915 2024-01-19 60 Download
10 nl 12 MB 3,056,752 2024-01-19 59 Download
11 online 13 MB 2,839,853 2024-01-19 99 Download
12 top 10 MB 2,661,207 2024-01-19 73 Download
13 shop 8 MB 2,109,520 2024-01-19 110 Download
14 cn 6 MB 2,054,152 2024-01-19 51 Download
15 eu 7 MB 2,016,356 2024-01-19 64 Download
16 fr 9 MB 2,015,389 2024-01-19 77 Download
17 it 7 MB 1,834,016 2024-01-19 76 Download
18 us 6 MB 1,702,269 2024-01-19 71 Download
19 site 6 MB 1,467,042 2024-01-19 74 Download
20 store 6 MB 1,343,259 2024-01-19 69 Download
21 se 5 MB 1,272,298 2024-01-19 53 Download
22 biz 5 MB 1,258,371 2024-01-19 74 Download
23 pl 5 MB 1,252,383 2024-01-19 82 Download
24 co 4 MB 1,179,992 2024-01-19 51 Download
25 cfd 4 MB 1,019,971 2024-01-19 28 Download
26 be 4 MB 968,807 2024-01-19 46 Download
27 at 3 MB 895,606 2024-01-19 43 Download
28 vip 2 MB 843,738 2024-01-19 49 Download
29 dk 3 MB 797,194 2024-01-19 43 Download
30 cz 3 MB 789,000 2024-01-19 55 Download
31 xn--p1ai (рф) 5 MB 774,620 2024-02-21 405 Download
32 jp 3 MB 710,913 2024-01-19 61 Download
33 app 2 MB 667,417 2024-01-19 43 Download
34 club 2 MB 591,437 2024-01-19 42 Download
35 live 2 MB 589,886 2024-01-19 39 Download
36 click 3 MB 566,373 2024-01-19 36 Download
37 ca 2 MB 496,298 2024-01-19 49 Download
38 pro 2 MB 482,065 2024-01-19 49 Download
39 me 2 MB 471,455 2024-01-19 48 Download
40 tech 2 MB 460,891 2024-01-19 45 Download
41 no 2 MB 452,909 2024-01-19 37 Download
42 dev 1 MB 402,305 2024-01-19 41 Download
43 ch 2 MB 392,757 2024-01-19 43 Download
44 tk 2 MB 389,305 2024-01-19 61 Download
45 space 2 MB 381,927 2024-01-19 51 Download
46 cc 1 MB 381,498 2024-01-19 40 Download
47 fun 2 MB 377,011 2024-01-19 43 Download
48 uk 1 MB 376,433 2024-01-19 64 Download
49 life 2 MB 370,919 2024-01-19 35 Download
50 in 1 MB 361,026 2024-01-19 54 Download
51 cl 1 MB 349,882 2024-01-19 31 Download
52 cloud 1 MB 333,049 2024-01-19 40 Download
53 fi 1 MB 314,331 2024-01-19 43 Download
54 asia 1 MB 304,229 2024-01-19 29 Download
55 website 1 MB 276,238 2024-01-19 38 Download
56 mobi 1 MB 257,270 2024-01-19 34 Download
57 cyou 1 MB 248,718 2024-01-19 27 Download
58 work 1 MB 247,759 2024-01-19 38 Download
59 blog 1 MB 242,708 2024-01-19 46 Download
60 art 1 MB 235,056 2024-01-19 35 Download
61 link 878 KB 226,557 2024-01-19 30 Download
62 world 856 KB 210,525 2024-01-19 35 Download
63 io 714 KB 208,727 2024-01-19 65 Download
64 es 903 KB 206,092 2024-01-19 60 Download
65 today 960 KB 205,539 2024-01-19 30 Download
66 nu 801 KB 204,724 2024-01-19 31 Download
67 ro 839 KB 196,494 2024-01-19 41 Download
68 sk 702 KB 187,363 2024-01-19 38 Download
69 mx 670 KB 172,999 2024-01-19 46 Download
70 one 601 KB 165,032 2024-01-19 31 Download
71 hu 660 KB 157,479 2024-01-19 33 Download
72 lt 476 KB 123,910 2024-01-19 35 Download
73 digital 489 KB 123,771 2024-01-19 35 Download
74 ae 490 KB 122,352 2024-01-19 35 Download
75 kr 405 KB 120,929 2024-01-19 39 Download
76 email 430 KB 114,490 2024-01-19 33 Download
77 lol 459 KB 113,567 2024-01-19 28 Download
78 ltd 413 KB 113,385 2024-01-19 28 Download
79 design 432 KB 113,264 2024-01-19 31 Download
80 studio 413 KB 112,059 2024-01-19 35 Download
81 cat 484 KB 110,659 2024-01-19 30 Download
82 su 379 KB 109,010 2024-02-21 152 Download
83 group 379 KB 107,088 2024-01-19 30 Download
84 agency 396 KB 106,487 2024-01-19 37 Download
85 tokyo 469 KB 104,842 2024-01-19 27 Download
86 solutions 380 KB 99,063 2024-01-19 27 Download
87 win 348 KB 96,118 2024-01-19 32 Download
88 ee 324 KB 89,608 2024-01-19 33 Download
89 by 303 KB 87,544 2024-01-19 70 Download
90 cf 609 KB 82,884 2024-01-19 27 Download
91 ink 301 KB 81,005 2024-01-19 23 Download
92 name 343 KB 79,734 2024-01-19 32 Download
93 bio 295 KB 77,784 2024-01-19 25 Download
94 lv 300 KB 77,768 2024-01-19 33 Download
95 media 285 KB 77,440 2024-01-19 28 Download
96 company 313 KB 77,373 2024-01-19 36 Download
97 hr 333 KB 76,119 2024-01-19 30 Download
98 kz 268 KB 76,073 2024-01-19 82 Download
99 services 307 KB 74,334 2024-01-19 28 Download
100 network 266 KB 72,607 2024-01-19 28 Download
101 news 268 KB 68,371 2024-01-19 36 Download
102 rocks 272 KB 67,161 2024-01-19 27 Download
103 rs 268 KB 66,002 2024-01-19 33 Download
104 love 268 KB 65,901 2024-01-19 34 Download
105 best 298 KB 65,761 2024-01-19 27 Download
106 id 254 KB 65,726 2024-01-19 34 Download
107 ie 296 KB 64,754 2024-01-19 34 Download
108 fyi 323 KB 64,340 2024-01-19 25 Download
109 gr 265 KB 62,828 2024-01-19 32 Download
110 homes 275 KB 61,804 2024-01-19 20 Download
111 bet 187 KB 61,280 2024-01-19 29 Download
112 lu 244 KB 61,246 2024-01-19 26 Download
113 ws 212 KB 61,107 2024-01-19 26 Download
114 pics 259 KB 60,918 2024-01-19 25 Download
115 ai 199 KB 59,921 2024-01-19 36 Download
116 ir 230 KB 59,095 2024-01-19 30 Download
117 wiki 243 KB 58,767 2024-01-19 30 Download
118 academy 225 KB 55,401 2024-01-19 29 Download
119 social 219 KB 55,396 2024-01-19 26 Download
120 hk 211 KB 55,142 2024-01-19 26 Download
121 tw 208 KB 54,709 2024-01-19 29 Download
122 pt 233 KB 54,263 2024-01-19 28 Download
123 guru 218 KB 53,729 2024-01-19 31 Download
124 ma 196 KB 50,153 2024-01-19 26 Download
125 page 237 KB 48,921 2024-01-19 24 Download
126 team 179 KB 48,848 2024-01-19 23 Download
127 ovh 215 KB 48,655 2024-01-19 22 Download
128 berlin 215 KB 46,917 2024-01-19 23 Download
129 africa 195 KB 46,742 2024-01-19 23 Download
130 sg 184 KB 46,542 2024-01-19 24 Download
131 games 174 KB 46,504 2024-01-19 29 Download
132 xn--55qx5d (公司) 317 KB 45,771 2024-01-19 23 Download
133 wang 176 KB 45,493 2024-01-19 25 Download
134 gq 319 KB 44,605 2024-01-19 32 Download
135 mom 180 KB 44,507 2024-01-19 24 Download
136 zone 209 KB 43,652 2024-01-19 24 Download
137 tel 187 KB 42,480 2024-01-19 23 Download
138 is 152 KB 41,847 2024-01-19 25 Download
139 med 117 KB 41,815 2024-01-19 21 Download
140 bg 150 KB 41,475 2024-01-19 29 Download
141 si 168 KB 40,896 2024-01-19 27 Download
142 photography 176 KB 40,315 2024-01-19 23 Download
143 autos 187 KB 40,012 2024-01-19 19 Download
144 skin 223 KB 39,736 2024-01-19 9 Download
145 center 156 KB 38,855 2024-01-19 23 Download
146 care 146 KB 38,633 2024-01-19 22 Download
147 llc 154 KB 38,310 2024-01-19 22 Download
148 earth 135 KB 37,552 2024-01-19 25 Download
149 systems 134 KB 36,980 2024-01-19 24 Download
150 wtf 132 KB 36,684 2024-01-19 22 Download
151 consulting 142 KB 36,570 2024-01-19 25 Download
152 fit 128 KB 35,301 2024-01-19 23 Download
153 chat 117 KB 35,113 2024-01-19 25 Download
154 finance 120 KB 34,593 2024-01-19 30 Download
155 family 122 KB 34,342 2024-01-19 23 Download
156 support 133 KB 34,278 2024-01-19 27 Download
157 pe 134 KB 33,997 2024-01-19 25 Download
158 london 154 KB 33,920 2024-01-19 26 Download
159 business 141 KB 33,767 2024-01-19 30 Download
160 cam 150 KB 33,543 2024-01-19 24 Download
161 technology 123 KB 33,279 2024-01-19 26 Download
162 expert 137 KB 33,158 2024-01-19 24 Download
163 beauty 152 KB 33,061 2024-01-19 10 Download
164 foundation 147 KB 32,862 2024-01-19 26 Download
165 events 129 KB 32,514 2024-01-19 22 Download
166 realtor 154 KB 31,604 2024-01-19 23 Download
167 education 133 KB 31,458 2024-01-19 33 Download
168 xn--kput3i (手机) 226 KB 31,220 2024-01-19 22 Download
169 health 119 KB 31,137 2024-01-19 23 Download
170 city 115 KB 31,108 2024-01-19 26 Download
171 church 125 KB 31,069 2024-01-19 23 Download
172 marketing 117 KB 30,472 2024-01-19 24 Download
173 xn--io0a7i (网络) 219 KB 30,411 2024-01-19 24 Download
174 works 111 KB 30,395 2024-01-19 24 Download
175 bayern 148 KB 30,365 2024-01-19 23 Download
176 bar 139 KB 30,309 2024-01-19 24 Download
177 la 101 KB 30,233 2024-01-19 23 Download
178 ninja 115 KB 30,088 2024-01-19 24 Download
179 plus 98 KB 28,943 2024-01-19 23 Download
180 vn 117 KB 28,852 2024-01-19 27 Download
181 capital 96 KB 28,020 2024-01-19 24 Download
182 run 98 KB 27,781 2024-01-19 23 Download
183 gay 119 KB 27,642 2024-01-19 14 Download
184 international 113 KB 27,572 2024-01-19 23 Download
185 gmbh 107 KB 27,493 2024-01-19 21 Download
186 software 99 KB 26,425 2024-01-19 23 Download
187 help 120 KB 26,266 2024-01-19 23 Download
188 host 108 KB 26,168 2024-01-19 25 Download
189 coach 111 KB 26,058 2024-01-19 23 Download
190 farm 100 KB 25,948 2024-01-19 26 Download
191 coffee 96 KB 25,619 2024-01-19 23 Download
192 am 102 KB 24,699 2024-01-19 31 Download
193 cool 85 KB 24,374 2024-01-19 22 Download
194 house 90 KB 24,201 2024-01-19 22 Download
195 community 97 KB 23,618 2024-01-19 23 Download
196 tv 109 KB 23,256 2024-01-19 34 Download
197 land 83 KB 23,146 2024-01-19 9 Download
198 koeln 105 KB 23,038 2024-01-19 22 Download
199 training 97 KB 22,972 2024-01-19 23 Download
200 tips 94 KB 22,940 2024-01-19 22 Download
201 energy 81 KB 22,790 2024-01-19 23 Download
202 bid 83 KB 22,657 2024-01-19 22 Download
203 cafe 84 KB 22,636 2024-01-19 24 Download
204 travel 91 KB 22,635 2024-01-19 26 Download
205 tools 80 KB 22,514 2024-01-19 24 Download
206 video 89 KB 22,320 2024-01-19 24 Download
207 school 90 KB 22,240 2024-01-19 26 Download
208 photos 88 KB 21,692 2024-01-19 25 Download
209 ventures 78 KB 21,670 2024-01-19 23 Download
210 pub 74 KB 21,017 2024-01-19 24 Download
211 market 79 KB 20,851 2024-01-19 26 Download
212 tn 84 KB 20,823 2024-01-19 25 Download
213 fund 78 KB 20,496 2024-01-19 22 Download
214 party 89 KB 20,489 2024-01-19 21 Download
215 law 78 KB 20,430 2024-01-19 21 Download
216 amsterdam 86 KB 20,356 2024-01-19 21 Download
217 xn--p1acf (рус) 133 KB 20,276 2024-01-19 34 Download
218 bike 73 KB 19,993 2024-01-19 21 Download
219 ua 70 KB 19,942 2024-01-19 84 Download
220 cash 67 KB 19,736 2024-01-19 26 Download
221 gallery 80 KB 19,441 2024-01-19 23 Download
222 immo 77 KB 19,218 2024-01-19 22 Download
223 legal 73 KB 18,957 2024-01-19 20 Download
224 paris 86 KB 18,888 2024-01-19 22 Download
225 swiss 80 KB 18,723 2024-01-19 22 Download
226 trade 74 KB 18,629 2024-01-19 23 Download
227 productions 65 KB 18,395 2024-01-19 20 Download
228 red 62 KB 18,332 2024-01-19 21 Download
229 nyc 84 KB 18,182 2024-01-19 23 Download
230 money 63 KB 17,989 2024-01-19 24 Download
231 wine 77 KB 17,974 2024-01-19 20 Download
232 hair 92 KB 17,914 2024-01-19 20 Download
233 guide 71 KB 17,693 2024-01-19 20 Download
234 vegas 87 KB 17,586 2024-01-19 21 Download
235 press 78 KB 17,498 2024-01-19 23 Download
236 show 71 KB 17,443 2024-01-19 21 Download
237 nrw 84 KB 17,332 2024-01-19 20 Download
238 im 55 KB 17,213 2024-01-19 22 Download
239 exchange 60 KB 17,042 2024-01-19 25 Download
240 au 85 KB 16,955 2024-01-19 36 Download
241 ge 61 KB 16,925 2024-01-19 29 Download
242 band 74 KB 16,819 2024-01-19 20 Download
243 photo 70 KB 16,745 2024-01-19 21 Download
244 dog 64 KB 16,727 2024-01-19 21 Download
245 re 64 KB 16,535 2024-01-19 23 Download
246 zip 65 KB 16,452 2024-01-19 13 Download
247 codes 59 KB 16,359 2024-01-19 21 Download
248 realestate 75 KB 16,278 2024-01-19 20 Download
249 directory 68 KB 16,259 2024-01-19 21 Download
250 ing 58 KB 15,607 2024-01-19 9 Download
251 baby 52 KB 15,413 2024-01-19 19 Download
252 institute 65 KB 15,413 2024-01-19 22 Download
253 casino 54 KB 15,254 2024-01-19 32 Download
254 qa 61 KB 15,074 2024-01-19 21 Download
255 xn--6qq986b3xl (我爱你) 76 KB 15,069 2024-01-19 23 Download
256 blue 52 KB 14,461 2024-01-19 20 Download
257 ng 53 KB 14,370 2024-01-19 24 Download
258 properties 59 KB 14,359 2024-01-19 21 Download
259 wien 65 KB 14,257 2024-01-19 20 Download
260 eus 67 KB 14,244 2024-01-19 22 Download
261 golf 56 KB 14,125 2024-01-19 21 Download
262 pet 51 KB 13,981 2024-01-19 20 Download
263 mk 54 KB 13,951 2024-01-19 23 Download
264 boutique 60 KB 13,918 2024-01-19 20 Download
265 boats 71 KB 13,879 2024-01-19 19 Download
266 wedding 68 KB 13,790 2024-01-19 22 Download
267 beer 56 KB 13,763 2024-01-19 21 Download
268 vc 43 KB 13,549 2024-01-19 22 Download
269 yoga 52 KB 13,403 2024-01-19 20 Download
270 partners 52 KB 13,392 2024-01-19 20 Download
271 sale 55 KB 13,365 2024-01-19 21 Download
272 scot 62 KB 13,334 2024-01-19 20 Download
273 rentals 56 KB 13,243 2024-01-19 20 Download
274 clinic 55 KB 13,205 2024-01-19 22 Download
275 gg 43 KB 13,164 2024-01-19 24 Download
276 wales 61 KB 13,155 2024-01-19 20 Download
277 stream 57 KB 13,060 2024-01-19 23 Download
278 rip 43 KB 13,050 2024-01-19 18 Download
279 reviews 59 KB 12,900 2024-01-19 20 Download
280 fitness 50 KB 12,677 2024-01-19 21 Download
281 istanbul 61 KB 12,647 2024-01-19 20 Download
282 management 51 KB 12,536 2024-01-19 21 Download
283 gold 45 KB 12,529 2024-01-19 21 Download
284 nz 54 KB 12,432 2024-01-19 27 Download
285 surf 60 KB 12,390 2024-01-19 19 Download
286 clothing 52 KB 12,352 2024-01-19 20 Download
287 direct 47 KB 12,291 2024-01-19 20 Download
288 tours 51 KB 12,179 2024-01-19 22 Download
289 style 45 KB 12,090 2024-01-19 21 Download
290 xin 40 KB 12,055 2024-01-19 20 Download
291 contact 45 KB 12,044 2024-01-19 20 Download
292 science 53 KB 12,043 2024-01-19 20 Download
293 ag 42 KB 11,999 2024-01-19 19 Download
294 mn 43 KB 11,507 2024-01-19 20 Download
295 vision 42 KB 11,422 2024-01-19 20 Download
296 vet 44 KB 11,317 2024-01-19 19 Download
297 ren 42 KB 11,263 2024-01-19 19 Download
298 review 51 KB 11,227 2024-01-19 19 Download
299 tax 42 KB 11,172 2024-01-19 21 Download
300 as 38 KB 11,063 2024-01-19 21 Download
301 solar 41 KB 11,062 2024-01-19 19 Download
302 vin 41 KB 10,947 2024-01-19 19 Download
303 ly 36 KB 10,940 2024-01-19 23 Download
304 estate 44 KB 10,915 2024-01-19 20 Download
305 day 44 KB 10,813 2024-01-19 19 Download
306 sa 37 KB 10,754 2024-01-19 24 Download
307 mba 32 KB 10,699 2024-01-19 20 Download
308 buzz 43 KB 10,606 2024-01-19 26 Download
309 jetzt 48 KB 10,506 2024-01-19 19 Download
310 frl 47 KB 10,473 2024-01-19 20 Download
311 miami 47 KB 10,435 2024-01-19 22 Download
312 careers 44 KB 10,408 2024-01-19 20 Download
313 jobs 45 KB 10,294 2024-01-19 20 Download
314 sexy 50 KB 10,246 2024-01-19 22 Download
315 fashion 42 KB 10,225 2024-01-19 21 Download
316 ist 43 KB 10,210 2024-01-19 19 Download
317 report 40 KB 10,183 2024-01-19 19 Download
318 men 43 KB 10,166 2024-01-19 20 Download
319 place 37 KB 10,137 2024-01-19 19 Download
320 aero 36 KB 9,998 2024-01-19 24 Download
321 healthcare 42 KB 9,961 2024-01-19 19 Download
322 cards 36 KB 9,869 2024-01-19 20 Download
323 mu 41 KB 9,828 2024-01-19 19 Download
324 sydney 47 KB 9,794 2024-01-19 20 Download
325 credit 34 KB 9,764 2024-01-19 22 Download
326 melbourne 48 KB 9,754 2024-01-19 19 Download
327 watch 37 KB 9,753 2024-01-19 19 Download
328 engineering 37 KB 9,740 2024-01-19 19 Download
329 ruhr 42 KB 9,713 2024-01-19 19 Download
330 construction 38 KB 9,705 2024-01-19 18 Download
331 xn--czr694b (商标) 63 KB 9,703 2024-01-19 21 Download
332 sport 62 KB 9,577 2024-01-19 20 Download
333 express 35 KB 9,308 2024-01-19 18 Download
334 pictures 38 KB 9,134 2024-01-19 18 Download
335 deals 35 KB 9,075 2024-01-19 18 Download
336 shopping 38 KB 8,967 2024-01-19 22 Download
337 dental 38 KB 8,942 2024-01-19 19 Download
338 lawyer 42 KB 8,839 2024-01-19 18 Download
339 haus 32 KB 8,784 2024-01-19 18 Download
340 dance 35 KB 8,679 2024-01-19 21 Download
341 fans 38 KB 8,673 2024-01-19 19 Download
342 rent 34 KB 8,618 2024-01-19 19 Download
343 holdings 33 KB 8,548 2024-01-19 18 Download
344 university 35 KB 8,528 2024-01-19 20 Download
345 moscow 34 KB 8,435 2024-01-19 37 Download
346 tm 29 KB 8,431 2024-01-19 20 Download
347 delivery 33 KB 8,422 2024-01-19 18 Download
348 quebec 41 KB 8,409 2024-01-19 18 Download
349 coop 37 KB 8,402 2024-01-19 20 Download
350 md 34 KB 8,390 2024-01-19 24 Download
351 uz 33 KB 8,359 2024-01-19 33 Download
352 bot 28 KB 8,305 2024-01-19 10 Download
353 porn 38 KB 8,247 2024-01-19 21 Download
354 st 27 KB 8,202 2024-01-19 19 Download
355 camp 32 KB 8,178 2024-01-19 18 Download
356 cymru 40 KB 8,113 2024-01-19 18 Download
357 kim 28 KB 8,094 2024-01-19 18 Download
358 pizza 31 KB 8,088 2024-01-19 25 Download
359 restaurant 36 KB 8,056 2024-01-19 19 Download
360 college 35 KB 7,880 2024-01-19 19 Download
361 kitchen 31 KB 7,749 2024-01-19 18 Download
362 repair 33 KB 7,713 2024-01-19 18 Download
363 enterprises 31 KB 7,694 2024-01-19 18 Download
364 domains 29 KB 7,690 2024-01-19 22 Download
365 financial 29 KB 7,593 2024-01-19 20 Download
366 football 30 KB 7,582 2024-01-19 20 Download
367 download 35 KB 7,545 2024-01-19 24 Download
368 gives 36 KB 7,526 2024-01-19 19 Download
369 xxx 32 KB 7,473 2024-01-19 27 Download
370 computer 28 KB 7,416 2024-01-19 18 Download
371 fan 26 KB 7,393 2024-01-19 18 Download
372 sucks 36 KB 7,289 2024-01-19 19 Download
373 limited 29 KB 7,196 2024-01-19 18 Download
374 parts 28 KB 7,172 2024-01-19 18 Download
375 supply 27 KB 7,110 2024-01-19 18 Download
376 immobilien 30 KB 7,045 2024-01-19 18 Download
377 date 30 KB 7,018 2024-01-19 19 Download
378 gal 34 KB 6,927 2024-01-19 18 Download
379 li 28 KB 6,923 2024-01-19 21 Download
380 brussels 32 KB 6,889 2024-01-19 18 Download
381 menu 31 KB 6,873 2024-01-19 18 Download
382 industries 26 KB 6,828 2024-01-19 18 Download
383 moe 24 KB 6,736 2024-01-19 19 Download
384 ms 24 KB 6,732 2024-01-19 18 Download
385 sex 30 KB 6,632 2024-01-19 23 Download
386 adult 32 KB 6,620 2024-01-19 21 Download
387 investments 27 KB 6,594 2024-01-19 22 Download
388 xn--czru2d (商城) 51 KB 6,592 2024-01-19 20 Download
389 black 25 KB 6,549 2024-01-19 18 Download
390 loans 24 KB 6,461 2024-01-19 18 Download
391 graphics 25 KB 6,411 2024-01-19 19 Download
392 town 23 KB 6,382 2024-01-19 18 Download
393 engineer 27 KB 6,377 2024-01-19 18 Download
394 charity 29 KB 6,366 2024-01-19 18 Download
395 cr 26 KB 6,294 2024-01-19 18 Download
396 taxi 24 KB 6,287 2024-01-19 19 Download
397 ski 25 KB 6,268 2024-01-19 19 Download
398 film 28 KB 6,260 2024-01-19 18 Download
399 ooo 23 KB 6,156 2024-01-19 21 Download
400 cx 19 KB 6,125 2024-01-19 18 Download
401 loan 27 KB 6,065 2024-01-19 19 Download
402 eco 24 KB 6,047 2024-01-19 18 Download
403 kaufen 28 KB 6,018 2024-01-19 18 Download
404 promo 24 KB 5,906 2024-01-19 19 Download
405 auction 25 KB 5,878 2024-01-19 18 Download
406 kred 33 KB 5,861 2024-01-19 18 Download
407 insure 23 KB 5,845 2024-01-19 18 Download
408 lighting 23 KB 5,832 2024-01-19 18 Download
409 vlaanderen 28 KB 5,832 2024-01-19 19 Download
410 xn--6frz82g (移动) 31 KB 5,724 2024-01-19 20 Download
411 fish 21 KB 5,705 2024-01-19 18 Download
412 builders 23 KB 5,655 2024-01-19 18 Download
413 gift 22 KB 5,618 2024-01-19 18 Download
414 casa 25 KB 5,589 2024-01-19 18 Download
415 pink 21 KB 5,491 2024-01-19 18 Download
416 lk 24 KB 5,476 2024-01-19 20 Download
417 lat 24 KB 5,432 2024-01-19 19 Download
418 my 24 KB 5,404 2024-01-19 26 Download
419 xn--mk1bu44c (닷컴) 32 KB 5,344 2024-01-19 20 Download
420 gifts 22 KB 5,318 2024-01-19 18 Download
421 doctor 22 KB 5,263 2024-01-19 19 Download
422 tirol 25 KB 5,217 2024-01-19 18 Download
423 ba 22 KB 5,174 2024-01-19 20 Download
424 boo 19 KB 5,173 2024-01-19 8 Download
425 toys 20 KB 5,148 2024-01-19 18 Download
426 tattoo 24 KB 5,045 2024-01-19 18 Download
427 attorney 25 KB 4,988 2024-01-19 18 Download
428 boston 23 KB 4,929 2024-01-19 18 Download
429 barcelona 23 KB 4,890 2024-01-19 18 Download
430 faith 24 KB 4,874 2024-01-19 18 Download
431 cologne 22 KB 4,832 2024-01-19 18 Download
432 vote 19 KB 4,777 2024-01-19 18 Download
433 garden 19 KB 4,770 2024-01-19 18 Download
434 tc 18 KB 4,767 2024-01-19 19 Download
435 bzh 23 KB 4,747 2024-01-19 17 Download
436 audio 20 KB 4,739 2024-01-19 18 Download
437 country 16 KB 4,734 2024-01-19 19 Download
438 equipment 20 KB 4,684 2024-01-19 19 Download
439 pk 20 KB 4,668 2024-01-19 24 Download
440 army 18 KB 4,644 2024-01-19 18 Download
441 inc 18 KB 4,586 2024-01-19 18 Download
442 salon 18 KB 4,462 2024-01-19 18 Download
443 af 16 KB 4,457 2024-01-19 19 Download
444 forsale 21 KB 4,439 2024-01-19 18 Download
445 game 18 KB 4,434 2024-01-19 19 Download
446 fishing 16 KB 4,409 2024-01-19 18 Download
447 tube 17 KB 4,405 2024-01-19 19 Download
448 fail 18 KB 4,377 2024-01-19 18 Download
449 mortgage 18 KB 4,325 2024-01-19 18 Download
450 movie 20 KB 4,288 2024-01-19 18 Download
451 reisen 19 KB 4,278 2024-01-19 18 Download
452 shoes 17 KB 4,275 2024-01-19 19 Download
453 capetown 21 KB 4,262 2024-01-19 20 Download
454 az 18 KB 4,248 2024-01-19 31 Download
455 kids 18 KB 4,239 2024-01-19 9 Download
456 srl 17 KB 4,164 2024-01-19 18 Download
457 voto 12 KB 4,144 2024-01-19 18 Download
458 schule 18 KB 4,109 2024-01-19 19 Download
459 recipes 17 KB 4,083 2024-01-19 18 Download
460 cab 15 KB 4,082 2024-01-19 18 Download
461 ph 19 KB 4,066 2024-01-19 23 Download
462 apartments 19 KB 4,064 2024-01-19 18 Download
463 racing 20 KB 4,060 2024-01-19 18 Download
464 jewelry 17 KB 4,003 2024-01-19 18 Download
465 holiday 18 KB 4,000 2024-01-19 18 Download
466 claims 16 KB 3,912 2024-01-19 20 Download
467 mov 18 KB 3,898 2024-01-19 9 Download
468 how 15 KB 3,876 2024-01-19 18 Download
469 saarland 19 KB 3,870 2024-01-19 18 Download
470 xn--rhqv96g (世界) 22 KB 3,786 2024-01-19 20 Download
471 pm 13 KB 3,769 2024-01-19 19 Download
472 associates 16 KB 3,727 2024-01-19 18 Download
473 build 16 KB 3,694 2024-01-19 18 Download
474 contractors 17 KB 3,661 2024-01-19 18 Download
475 gratis 16 KB 3,649 2024-01-19 18 Download
476 glass 14 KB 3,620 2024-01-19 18 Download
477 gl 13 KB 3,586 2024-01-19 18 Download
478 xn--tckwe (コム) 22 KB 3,583 2024-01-19 20 Download
479 sn 15 KB 3,565 2024-01-19 18 Download
480 bz 14 KB 3,553 2024-01-19 19 Download
481 cheap 15 KB 3,535 2024-01-19 18 Download
482 sc 14 KB 3,534 2024-01-19 18 Download
483 je 14 KB 3,493 2024-01-19 18 Download
484 onl 14 KB 3,492 2024-01-19 19 Download
485 soccer 14 KB 3,484 2024-01-19 18 Download
486 dating 14 KB 3,453 2024-01-19 22 Download
487 vacations 16 KB 3,452 2024-01-19 18 Download
488 horse 15 KB 3,448 2024-01-19 19 Download
489 camera 14 KB 3,426 2024-01-19 18 Download
490 irish 15 KB 3,404 2024-01-19 19 Download
491 supplies 14 KB 3,372 2024-01-19 19 Download
492 green 14 KB 3,369 2024-01-19 18 Download
493 catering 16 KB 3,351 2024-01-19 18 Download
494 xn--hxt814e (网店) 24 KB 3,336 2024-01-19 19 Download
495 rsvp 17 KB 3,298 2024-01-19 9 Download
496 furniture 14 KB 3,283 2024-01-19 20 Download
497 exposed 15 KB 3,271 2024-01-19 19 Download
498 christmas 16 KB 3,265 2024-01-19 18 Download
499 al 13 KB 3,264 2024-01-19 23 Download
500 discount 14 KB 3,247 2024-01-19 20 Download
501 madrid 16 KB 3,188 2024-01-19 19 Download
502 trading 12 KB 3,187 2024-01-19 18 Download
503 voyage 13 KB 3,162 2024-01-19 18 Download
504 ngo 15 KB 3,116 2024-01-19 19 Download
505 singles 13 KB 3,116 2024-01-19 18 Download
506 gent 14 KB 3,084 2024-01-19 19 Download
507 ong 14 KB 3,079 2024-01-19 18 Download
508 pw 13 KB 3,065 2024-01-19 28 Download
509 ceo 13 KB 3,032 2024-01-19 19 Download
510 luxe 12 KB 2,997 2024-01-19 18 Download
511 study 14 KB 2,944 2024-01-19 19 Download
512 plumbing 13 KB 2,918 2024-01-19 18 Download
513 poker 12 KB 2,899 2024-01-19 22 Download
514 xn--80aswg (сайт) 11 KB 2,896 2024-01-19 26 Download
515 dentist 14 KB 2,883 2024-01-19 18 Download
516 ml 21 KB 2,870 2024-01-19 30 Download
517 degree 11 KB 2,842 2024-01-19 19 Download
518 joburg 14 KB 2,837 2024-01-19 19 Download
519 cleaning 12 KB 2,801 2024-01-19 18 Download
520 ac 9 KB 2,798 2024-01-19 20 Download
521 markets 11 KB 2,786 2024-01-19 19 Download
522 moda 11 KB 2,769 2024-01-19 19 Download
523 xn--vhquv (企业) 20 KB 2,712 2024-01-19 19 Download
524 actor 13 KB 2,710 2024-01-19 18 Download
525 cm 11 KB 2,682 2024-01-19 18 Download
526 hosting 11 KB 2,633 2024-01-19 18 Download
527 gy 10 KB 2,611 2024-01-19 18 Download
528 cooking 11 KB 2,597 2024-01-19 18 Download
529 webcam 12 KB 2,573 2024-01-19 21 Download
530 observer 11 KB 2,549 2024-01-19 19 Download
531 dad 10 KB 2,531 2024-01-19 8 Download
532 uy 12 KB 2,529 2024-01-19 20 Download
533 futbol 11 KB 2,484 2024-01-19 18 Download
534 diamonds 10 KB 2,468 2024-01-19 18 Download
535 fm 10 KB 2,458 2024-01-19 20 Download
536 bank 10 KB 2,451 2024-01-19 26 Download
537 florist 11 KB 2,442 2024-01-19 18 Download
538 edu 9 KB 2,368 2024-01-19 44 Download
539 property 11 KB 2,360 2024-01-19 18 Download
540 to 9 KB 2,349 2024-01-19 21 Download
541 om 10 KB 2,333 2024-01-19 19 Download
542 yt 9 KB 2,304 2024-01-19 19 Download
543 bingo 9 KB 2,295 2024-01-19 18 Download
544 desi 10 KB 2,282 2024-01-19 18 Download
545 corsica 12 KB 2,281 2024-01-19 18 Download
546 limo 9 KB 2,264 2024-01-19 18 Download
547 coupons 10 KB 2,250 2024-01-19 18 Download
548 foo 9 KB 2,245 2024-01-19 9 Download
549 xn--q9jyb4c (みんな) 11 KB 2,244 2024-01-19 18 Download
550 xn--80asehdb (онлайн) 14 KB 2,238 2024-01-19 25 Download
551 rehab 10 KB 2,230 2024-01-19 19 Download
552 meme 10 KB 2,145 2024-01-19 9 Download
553 tf 8 KB 2,139 2024-01-19 20 Download
554 broker 9 KB 2,122 2024-01-19 18 Download
555 cruises 9 KB 2,104 2024-01-19 19 Download
556 xn--t60b56a (닷넷) 13 KB 2,101 2024-01-19 20 Download
557 hospital 10 KB 2,088 2024-01-19 18 Download
558 tienda 10 KB 2,057 2024-01-19 18 Download
559 esq 9 KB 2,044 2024-01-19 8 Download
560 flights 9 KB 2,036 2024-01-19 18 Download
561 bargains 9 KB 2,014 2024-01-19 18 Download
562 villas 9 KB 1,997 2024-01-19 18 Download
563 lease 8 KB 1,994 2024-01-19 18 Download
564 ec 9 KB 1,993 2024-01-19 19 Download
565 giving 9 KB 1,985 2024-01-19 8 Download
566 alsace 10 KB 1,983 2024-01-19 18 Download
567 hockey 8 KB 1,972 2024-01-19 18 Download
568 durban 10 KB 1,969 2024-01-19 18 Download
569 br 7 KB 1,961 2024-01-19 36 Download
570 lgbt 9 KB 1,945 2024-01-19 19 Download
571 radio 9 KB 1,944 2024-01-19 19 Download
572 archi 8 KB 1,891 2024-01-19 19 Download
573 tennis 8 KB 1,852 2024-01-19 20 Download
574 so 7 KB 1,799 2024-01-19 18 Download
575 soy 8 KB 1,795 2024-01-19 18 Download
576 vodka 8 KB 1,742 2024-01-19 19 Download
577 accountants 8 KB 1,738 2024-01-19 18 Download
578 forum 9 KB 1,726 2024-01-19 20 Download
579 kg 7 KB 1,716 2024-01-19 29 Download
580 phd 8 KB 1,709 2024-01-19 17 Download
581 xn--5tzm5g (网站) 11 KB 1,709 2024-01-19 18 Download
582 surgery 8 KB 1,700 2024-01-19 18 Download
583 versicherung 8 KB 1,694 2024-01-19 18 Download
584 condos 8 KB 1,689 2024-01-19 18 Download
585 tg 11 KB 1,672 2024-01-19 19 Download
586 mma 10 KB 1,634 2024-01-19 17 Download
587 rest 7 KB 1,621 2024-01-19 19 Download
588 courses 8 KB 1,549 2024-01-19 19 Download
589 xn--9dbq2a (קום) 9 KB 1,529 2024-01-19 9 Download
590 nexus 7 KB 1,515 2024-01-19 8 Download
591 sh 5 KB 1,482 2024-01-19 18 Download
592 theater 7 KB 1,451 2024-01-19 18 Download
593 hiphop 7 KB 1,435 2024-01-19 18 Download
594 pr 7 KB 1,429 2024-01-19 18 Download
595 wf 6 KB 1,398 2024-01-19 19 Download
596 new 5 KB 1,392 2024-01-19 19 Download
597 rodeo 6 KB 1,382 2024-01-19 18 Download
598 ci 6 KB 1,373 2024-01-19 18 Download
599 ht 6 KB 1,363 2024-01-19 18 Download
600 zuerich 7 KB 1,340 2024-01-19 18 Download
601 creditcard 6 KB 1,323 2024-01-19 19 Download
602 organic 6 KB 1,318 2024-01-19 18 Download
603 accountant 7 KB 1,308 2024-01-19 18 Download
604 realty 6 KB 1,226 2024-01-19 18 Download
605 diet 6 KB 1,217 2024-01-19 18 Download
606 maison 5 KB 1,208 2024-01-19 19 Download
607 bible 6 KB 1,205 2024-01-19 19 Download
608 xn--czrs0t (商店) 7 KB 1,204 2024-01-19 20 Download
609 ps 5 KB 1,171 2024-01-19 22 Download
610 ar 6 KB 1,138 2024-01-19 24 Download
611 tires 5 KB 1,138 2024-01-19 18 Download
612 leclerc 6 KB 1,135 2024-01-19 18 Download
613 navy 5 KB 1,100 2024-01-19 20 Download
614 cricket 5 KB 1,095 2024-01-19 18 Download
615 sarl 5 KB 1,087 2024-01-19 19 Download
616 republican 5 KB 1,075 2024-01-19 18 Download
617 flowers 5 KB 1,060 2024-01-19 18 Download
618 democrat 5 KB 1,051 2024-01-19 18 Download
619 gi 5 KB 1,017 2024-01-19 18 Download
620 gripe 5 KB 1,010 2024-01-19 18 Download
621 gop 5 KB 1,007 2024-01-19 18 Download
622 reise 5 KB 981 2024-01-19 19 Download
623 feedback 6 KB 978 2024-01-19 19 Download
624 tickets 5 KB 975 2024-01-19 18 Download
625 career 5 KB 967 2024-01-19 18 Download
626 osaka 5 KB 958 2024-01-19 18 Download
627 dz 5 KB 944 2024-01-19 18 Download
628 abudhabi 5 KB 940 2024-01-19 18 Download
629 blackfriday 5 KB 933 2024-01-19 19 Download
630 fo 4 KB 921 2024-01-19 19 Download
631 forex 4 KB 915 2024-01-19 20 Download
632 museum 4 KB 915 2024-01-19 19 Download
633 viajes 4 KB 886 2024-01-19 18 Download
634 do 4 KB 856 2024-01-19 19 Download
635 tatar 4 KB 852 2024-01-19 10 Download
636 airforce 4 KB 844 2024-01-19 18 Download
637 physio 4 KB 839 2024-01-19 22 Download
638 xn--80adxhks (москва) 5 KB 834 2024-01-19 32 Download
639 xn--c1avg (орг) 5 KB 827 2024-01-19 24 Download
640 xn--j1amh (укр) 4 KB 797 2024-01-19 21 Download
641 tj 4 KB 783 2024-01-19 19 Download
642 xn--d1acj3b (дети) 5 KB 775 2024-01-19 25 Download
643 memorial 4 KB 772 2024-01-19 19 Download
644 seat 5 KB 766 2024-01-19 18 Download
645 guitars 3 KB 687 2024-01-19 18 Download
646 prof 3 KB 687 2024-01-19 8 Download
647 rio 4 KB 668 2024-01-19 20 Download
648 nc 3 KB 652 2024-01-19 18 Download
649 hn 3 KB 647 2024-01-19 18 Download
650 basketball 3 KB 635 2024-01-19 18 Download
651 abogado 3 KB 626 2024-01-19 18 Download
652 security 3 KB 602 2024-01-19 18 Download
653 storage 3 KB 585 2024-01-19 19 Download
654 ug 3 KB 583 2024-01-19 18 Download
655 compare 3 KB 578 2024-01-19 17 Download
656 select 3 KB 566 2024-01-19 18 Download
657 luxury 3 KB 551 2024-01-19 19 Download
658 xn--mgbab2bd (بازار) 4 KB 550 2024-01-19 19 Download
659 shiksha 3 KB 546 2024-01-19 18 Download
660 ltda 2 KB 543 2024-01-19 18 Download
661 ky 3 KB 535 2024-01-19 18 Download
662 gs 2 KB 517 2024-01-19 18 Download
663 mg 3 KB 512 2024-01-19 18 Download
664 xn--ngbc5azd (شبكة) 3 KB 495 2024-01-19 18 Download
665 rugby 2 KB 493 2024-01-19 20 Download
666 juegos 3 KB 491 2024-01-19 18 Download
667 auto 2 KB 488 2024-01-19 19 Download
668 post 2 KB 487 2024-01-19 21 Download
669 vg 2 KB 483 2024-01-19 18 Download
670 mo 2 KB 478 2024-01-19 18 Download
671 xn--fjq720a (娱乐) 2 KB 478 2024-01-19 17 Download
672 cd 2 KB 474 2024-01-19 18 Download
673 gt 2 KB 472 2024-01-19 19 Download
674 xn--unup4y (游戏) 2 KB 470 2024-01-19 18 Download
675 sm 2 KB 457 2024-01-19 19 Download
676 bm 2 KB 444 2024-01-19 20 Download
677 creditunion 2 KB 443 2024-01-19 19 Download
678 xn--3bst00m (集团) 3 KB 431 2024-01-19 18 Download
679 dj 2 KB 421 2024-01-19 19 Download
680 sx 2 KB 413 2024-01-19 18 Download
681 kyoto 2 KB 405 2024-01-19 19 Download
682 schwarz 2 KB 402 2024-01-19 19 Download
683 jo 2 KB 383 2024-01-19 18 Download
684 mv 2 KB 374 2024-01-19 18 Download
685 rw 2 KB 374 2024-01-19 18 Download
686 vu 2 KB 362 2024-01-19 18 Download
687 mc 2 KB 361 2024-01-19 19 Download
688 goog 2 KB 341 2024-01-19 18 Download
689 aco 1 KB 339 2024-01-19 18 Download
690 car 1 KB 315 2024-01-19 18 Download
691 cv 2 KB 311 2024-01-19 18 Download
692 broadway 2 KB 306 2024-01-19 17 Download
693 channel 2 KB 302 2024-01-19 18 Download
694 gd 1 KB 292 2024-01-19 18 Download
695 sr 2 KB 288 2024-01-19 18 Download
696 bi 1 KB 286 2024-01-19 18 Download
697 cars 1 KB 284 2024-01-19 19 Download
698 tl 1 KB 281 2024-01-19 19 Download
699 bo 2 KB 271 2024-01-19 18 Download
700 na 1 KB 271 2024-01-19 18 Download
701 yachts 1 KB 265 2024-01-19 18 Download
702 ad 1 KB 260 2024-01-19 19 Download
703 sv 1 KB 238 2024-01-19 18 Download
704 watches 1 KB 238 2024-01-19 8 Download
705 fox 1 KB 227 2024-01-19 9 Download
706 ga 1 KB 227 2024-01-19 27 Download
707 neustar 1 KB 220 2024-01-19 19 Download
708 sd 1 KB 220 2024-01-19 18 Download
709 bh 1 KB 218 2024-01-19 18 Download
710 hiv 1 KB 216 2024-01-19 19 Download
711 hoteles 2 KB 215 2024-01-19 17 Download
712 int 805 Byte 201 2024-01-19 21 Download
713 bradesco 1 KB 198 2024-01-19 18 Download
714 mt 1 KB 191 2024-01-19 18 Download
715 stockholm 1 KB 188 2024-01-19 18 Download
716 man 1 KB 181 2024-01-19 20 Download
717 google 1 KB 172 2024-01-19 18 Download
718 globo 1 KB 163 2024-01-19 19 Download
719 pf 1 KB 154 2024-01-19 18 Download
720 lc 822 Byte 153 2024-01-19 18 Download
721 dealer 931 Byte 151 2024-01-19 17 Download
722 mr 807 Byte 151 2024-01-19 21 Download
723 bt 978 Byte 150 2024-01-19 19 Download
724 bf 931 Byte 148 2024-01-19 18 Download
725 iq 867 Byte 148 2024-01-19 18 Download
726 gm 905 Byte 147 2024-01-19 18 Download
727 cg 854 Byte 145 2024-01-19 18 Download
728 cy 900 Byte 144 2024-01-19 20 Download
729 bw 721 Byte 141 2024-01-19 19 Download
730 gp 800 Byte 141 2024-01-19 19 Download
731 qpon 889 Byte 138 2024-01-19 18 Download
732 sl 977 Byte 138 2024-01-19 19 Download
733 sy 808 Byte 138 2024-01-19 19 Download
734 mw 838 Byte 135 2024-01-19 20 Download
735 hm 773 Byte 133 2024-01-19 19 Download
736 makeup 1 KB 132 2024-01-19 20 Download
737 nra 910 Byte 132 2024-01-19 17 Download
738 theatre 817 Byte 122 2024-01-19 17 Download
739 stada 674 Byte 121 2024-01-19 17 Download
740 erni 905 Byte 114 2024-01-19 18 Download
741 sbi 685 Byte 113 2024-01-19 8 Download
742 tt 672 Byte 113 2024-01-19 18 Download
743 bb 745 Byte 110 2024-01-19 18 Download
744 protection 759 Byte 109 2024-01-19 17 Download
745 sky 703 Byte 106 2024-01-19 18 Download
746 ao 736 Byte 104 2024-01-19 18 Download
747 ke 709 Byte 103 2024-01-19 20 Download
748 xn--4gbrim (موقع) 678 Byte 102 2024-01-19 17 Download
749 bj 678 Byte 100 2024-01-19 18 Download
750 krd 609 Byte 96 2024-01-19 18 Download
751 lotto 657 Byte 93 2024-01-19 9 Download
752 teva 524 Byte 93 2024-01-19 9 Download
753 target 663 Byte 91 2024-01-19 18 Download
754 toyota 684 Byte 90 2024-01-19 9 Download
755 bs 625 Byte 88 2024-01-19 18 Download
756 eg 605 Byte 87 2024-01-19 18 Download
757 rich 542 Byte 86 2024-01-19 8 Download
758 azure 476 Byte 84 2024-01-19 7 Download
759 pa 608 Byte 84 2024-01-19 17 Download
760 toray 582 Byte 83 2024-01-19 8 Download
761 vi 569 Byte 82 2024-01-19 17 Download
762 reit 572 Byte 80 2024-01-19 16 Download
763 cba 503 Byte 76 2024-01-19 7 Download
764 dhl 608 Byte 76 2024-01-19 7 Download
765 dm 560 Byte 74 2024-01-19 17 Download
766 kn 534 Byte 70 2024-01-19 17 Download
767 tui 545 Byte 70 2024-01-19 9 Download
768 bmw 555 Byte 69 2024-01-19 10 Download
769 komatsu 552 Byte 69 2024-01-19 7 Download
770 cu 589 Byte 68 2024-01-19 18 Download
771 xn--otu796d (招聘) 688 Byte 66 2024-01-19 8 Download
772 mq 530 Byte 64 2024-01-19 17 Download
773 aw 497 Byte 61 2024-01-19 17 Download
774 kfh 413 Byte 61 2024-01-19 8 Download
775 bn 365 Byte 60 2024-01-19 17 Download
776 lidl 464 Byte 56 2024-01-19 7 Download
777 kpn 447 Byte 55 2024-01-19 7 Download
778 xn--mgbca7dzdo (ابوظبي) 880 Byte 55 2024-01-19 8 Download
779 uol 426 Byte 54 2024-01-19 8 Download
780 trust 482 Byte 51 2024-01-19 9 Download
781 mango 422 Byte 49 2024-01-19 7 Download
782 meet 388 Byte 49 2024-01-19 7 Download
783 ricoh 470 Byte 49 2024-01-19 8 Download
784 shell 448 Byte 49 2024-01-19 7 Download
785 bridgestone 471 Byte 47 2024-01-19 7 Download
786 gf 425 Byte 47 2024-01-19 17 Download
787 aquarelle 511 Byte 45 2024-01-19 7 Download
788 fresenius 465 Byte 44 2024-01-19 7 Download
789 zm 384 Byte 44 2024-01-19 17 Download
790 km 419 Byte 42 2024-01-19 8 Download
791 pictet 438 Byte 42 2024-01-19 7 Download
792 philips 411 Byte 41 2024-01-19 7 Download
793 mz 337 Byte 40 2024-01-19 17 Download
794 ipiranga 456 Byte 39 2024-01-19 7 Download
795 xbox 371 Byte 38 2024-01-19 7 Download
796 vivo 362 Byte 37 2024-01-19 16 Download
797 xn--imr513n (餐厅) 451 Byte 37 2024-01-19 7 Download
798 statebank 317 Byte 36 2024-01-19 7 Download
799 box 346 Byte 34 2024-01-19 18 Download
800 et 317 Byte 33 2024-01-19 17 Download
801 ne 342 Byte 33 2024-01-19 18 Download
802 ni 354 Byte 33 2024-01-19 17 Download
803 bauhaus 282 Byte 32 2024-01-19 7 Download
804 td 343 Byte 32 2024-01-19 17 Download
805 sap 297 Byte 30 2024-01-19 8 Download
806 gw 349 Byte 29 2024-01-19 17 Download
807 vig 344 Byte 29 2024-01-19 7 Download
808 th 407 Byte 28 2024-01-19 19 Download
809 shriram 358 Byte 28 2024-01-19 2 Download
810 hisamitsu 299 Byte 27 2024-01-19 7 Download
811 itau 326 Byte 26 2024-01-19 7 Download
812 tz 293 Byte 26 2024-01-19 17 Download
813 xn--nyqy26a (健康) 395 Byte 26 2024-01-19 7 Download
814 williamhill 329 Byte 24 2024-01-19 7 Download
815 bing 277 Byte 23 2024-01-19 16 Download
816 windows 287 Byte 22 2024-01-19 7 Download
817 xn--nqv7f (机构) 367 Byte 22 2024-01-19 16 Download
818 ismaili 295 Byte 21 2024-01-19 7 Download
819 wed 316 Byte 21 2024-01-19 7 Download
820 hotmail 272 Byte 20 2024-01-19 16 Download
821 motorcycles 332 Byte 20 2024-01-19 7 Download
822 pn 250 Byte 20 2024-01-19 17 Download
823 sharp 246 Byte 19 2024-01-19 8 Download
824 youtube 306 Byte 19 2024-01-19 8 Download
825 gle 259 Byte 18 2024-01-19 8 Download
826 ki 253 Byte 18 2024-01-19 17 Download
827 xn--ngbe9e0a (بيتك) 316 Byte 18 2024-01-19 8 Download
828 jio 256 Byte 17 2024-01-19 16 Download
829 sew 280 Byte 17 2024-01-19 8 Download
830 cern 254 Byte 15 2024-01-19 8 Download
831 ntt 258 Byte 15 2024-01-19 9 Download
832 pioneer 296 Byte 15 2024-01-19 8 Download
833 nowruz 252 Byte 12 2024-01-19 8 Download
834 dubai 250 Byte 11 2024-01-19 7 Download
835 helsinki 269 Byte 11 2024-01-19 7 Download
836 hyundai 258 Byte 11 2024-01-19 7 Download
837 ls 218 Byte 11 2024-01-19 19 Download
838 redstone 249 Byte 11 2024-01-19 7 Download
839 cancerresearch 264 Byte 11 2024-01-19 2 Download
840 politie 240 Byte 10 2024-01-19 16 Download
841 praxi 257 Byte 10 2024-01-19 7 Download
842 stc 231 Byte 10 2024-01-19 7 Download
843 xn--fiq64b (中信) 289 Byte 10 2024-01-19 8 Download
844 xn--kcrx77d1x4a (飞利浦) 299 Byte 10 2024-01-19 8 Download
845 bostik 252 Byte 9 2024-01-19 7 Download
846 brother 233 Byte 9 2024-01-19 8 Download
847 dabur 239 Byte 9 2024-01-19 8 Download
848 sony 234 Byte 9 2024-01-19 7 Download
849 citic 231 Byte 8 2024-01-19 8 Download
850 ice 213 Byte 8 2024-01-19 8 Download
851 nec 225 Byte 8 2024-01-19 7 Download
852 xn--i1b6b1a6a2e (संगठन) 303 Byte 8 2024-01-19 17 Download
853 xn--zfr164b (政务) 328 Byte 8 2024-01-19 7 Download
854 chintai 232 Byte 7 2024-01-19 8 Download
855 hermes 228 Byte 7 2024-01-19 7 Download
856 lancaster 228 Byte 7 2024-01-19 7 Download
857 office 232 Byte 7 2024-01-19 18 Download
858 sfr 220 Byte 7 2024-01-19 7 Download
859 skype 227 Byte 7 2024-01-19 18 Download
860 total 230 Byte 7 2024-01-19 8 Download
861 wme 212 Byte 7 2024-01-19 8 Download
862 xn--efvy88h (新闻) 244 Byte 7 2024-01-19 8 Download
863 spreadbetting 251 Byte 7 2024-01-19 2 Download
864 barclaycard 239 Byte 6 2024-01-19 7 Download
865 bbc 201 Byte 6 2024-01-19 19 Download
866 dvag 211 Byte 6 2024-01-19 8 Download
867 ferrero 233 Byte 6 2024-01-19 7 Download
868 honda 205 Byte 6 2024-01-19 7 Download
869 mattel 206 Byte 6 2024-01-19 7 Download
870 saxo 222 Byte 6 2024-01-19 7 Download
871 cbn 204 Byte 5 2024-01-19 7 Download
872 grainger 239 Byte 5 2024-01-19 7 Download
873 lexus 202 Byte 5 2024-01-19 8 Download
874 monash 215 Byte 5 2024-01-19 7 Download
875 mtn 207 Byte 5 2024-01-19 7 Download
876 netbank 217 Byte 5 2024-01-19 8 Download
877 softbank 222 Byte 5 2024-01-19 7 Download
878 able 200 Byte 4 2024-01-19 19 Download
879 allfinanz 223 Byte 4 2024-01-19 7 Download
880 android 213 Byte 4 2024-01-19 8 Download
881 citi 191 Byte 4 2024-01-19 17 Download
882 commbank 209 Byte 4 2024-01-19 8 Download
883 fujitsu 211 Byte 4 2024-01-19 16 Download
884 gmail 196 Byte 4 2024-01-19 10 Download
885 imamat 201 Byte 4 2024-01-19 8 Download
886 jmp 199 Byte 4 2024-01-19 8 Download
887 nike 199 Byte 4 2024-01-19 17 Download
888 xn--1qqw23a (佛山) 231 Byte 4 2024-01-19 8 Download
889 akdn 186 Byte 3 2024-01-19 7 Download
890 amica 191 Byte 3 2024-01-19 8 Download
891 analytics 212 Byte 3 2024-01-19 7 Download
892 barclays 203 Byte 3 2024-01-19 8 Download
893 crown 193 Byte 3 2024-01-19 7 Download
894 here 192 Byte 3 2024-01-19 8 Download
895 kia 183 Byte 3 2024-01-19 7 Download
896 panasonic 218 Byte 3 2024-01-19 17 Download
897 ping 192 Byte 3 2024-01-19 8 Download
898 samsung 199 Byte 3 2024-01-19 7 Download
899 sandvik 205 Byte 3 2024-01-19 7 Download
900 scb 190 Byte 3 2024-01-19 7 Download
901 sohu 182 Byte 3 2024-01-19 7 Download
902 sz 184 Byte 3 2024-01-19 17 Download
903 tvs 188 Byte 3 2024-01-19 5 Download
904 xn--vermgensberatung-pwb (vermögensberatung) 283 Byte 3 2024-01-19 8 Download
905 yandex 192 Byte 3 2024-01-19 7 Download
906 ye 183 Byte 3 2024-01-19 20 Download
907 ses 191 Byte 3 2024-01-19 14 Download
908 ads 185 Byte 2 2024-01-19 8 Download
909 bcn 178 Byte 2 2024-01-19 7 Download
910 beats 183 Byte 2 2024-01-19 8 Download
911 caravan 190 Byte 2 2024-01-19 7 Download
912 chrome 188 Byte 2 2024-01-19 7 Download
913 cookingchannel 214 Byte 2 2024-01-19 16 Download
914 docs 181 Byte 2 2024-01-19 8 Download
915 eat 185 Byte 2 2024-01-19 7 Download
916 epson 190 Byte 2 2024-01-19 7 Download
917 firestone 200 Byte 2 2024-01-19 7 Download
918 flir 183 Byte 2 2024-01-19 8 Download
919 fly 185 Byte 2 2024-01-19 7 Download
920 ftr 182 Byte 2 2024-01-19 8 Download
921 gh 182 Byte 2 2024-01-19 18 Download
922 jprs 185 Byte 2 2024-01-19 8 Download
923 kw 177 Byte 2 2024-01-19 17 Download
924 mini 186 Byte 2 2024-01-19 8 Download
925 passagens 203 Byte 2 2024-01-19 8 Download
926 prod 188 Byte 2 2024-01-19 8 Download
927 py 174 Byte 2 2024-01-19 22 Download
928 sakura 194 Byte 2 2024-01-19 8 Download
929 sas 179 Byte 2 2024-01-19 7 Download
930 schmidt 198 Byte 2 2024-01-19 7 Download
931 vuelos 194 Byte 2 2024-01-19 9 Download
932 xn--45q11c (八卦) 205 Byte 2 2024-01-19 8 Download
933 xn--55qw42g (公益) 259 Byte 2 2024-01-19 7 Download
934 xn--vermgensberater-ctb (vermögensberater) 261 Byte 2 2024-01-19 8 Download
935 xn--xhq521b (广东) 211 Byte 2 2024-01-19 8 Download
936 za 175 Byte 2 2024-01-19 24 Download
937 lixil 194 Byte 2 2024-01-19 2 Download
938 aetna 178 Byte 1 2024-01-19 4 Download
939 agakhan 184 Byte 1 2024-01-19 5 Download
940 airtel 181 Byte 1 2024-01-19 5 Download
941 anquan 181 Byte 1 2024-01-19 5 Download
942 arab 175 Byte 1 2024-01-19 14 Download
943 aramco 181 Byte 1 2024-01-19 5 Download
944 author 181 Byte 1 2024-01-19 5 Download
945 avianca 184 Byte 1 2024-01-19 4 Download
946 baidu 178 Byte 1 2024-01-19 4 Download
947 bom 172 Byte 1 2024-01-19 6 Download
948 book 175 Byte 1 2024-01-19 5 Download
949 booking 184 Byte 1 2024-01-19 4 Download
950 buy 172 Byte 1 2024-01-19 5 Download
951 cal 172 Byte 1 2024-01-19 5 Download
952 call 175 Byte 1 2024-01-19 5 Download
953 cityeats 187 Byte 1 2024-01-19 4 Download
954 clinique 187 Byte 1 2024-01-19 4 Download
955 comsec 181 Byte 1 2024-01-19 5 Download
956 cuisinella 193 Byte 1 2024-01-19 4 Download
957 data 175 Byte 1 2024-01-19 14 Download
958 dclk 175 Byte 1 2024-01-19 5 Download
959 dds 172 Byte 1 2024-01-19 4 Download
960 deal 175 Byte 1 2024-01-19 4 Download
961 delta 178 Byte 1 2024-01-19 4 Download
962 diy 172 Byte 1 2024-01-19 4 Download
963 dot 172 Byte 1 2024-01-19 5 Download
964 drive 178 Byte 1 2024-01-19 5 Download
965 emerck 181 Byte 1 2024-01-19 4 Download
966 etisalat 187 Byte 1 2024-01-19 14 Download
967 eurovision 193 Byte 1 2024-01-19 4 Download
968 farmers 184 Byte 1 2024-01-19 13 Download
969 fast 175 Byte 1 2024-01-19 5 Download
970 final 178 Byte 1 2024-01-19 4 Download
971 fire 175 Byte 1 2024-01-19 4 Download
972 firmdale 187 Byte 1 2024-01-19 4 Download
973 food 175 Byte 1 2024-01-19 15 Download
974 foodnetwork 196 Byte 1 2024-01-19 13 Download
975 free 175 Byte 1 2024-01-19 14 Download
976 frontdoor 190 Byte 1 2024-01-19 13 Download
977 frontier 187 Byte 1 2024-01-19 4 Download
978 gbiz 175 Byte 1 2024-01-19 5 Download
979 grocery 184 Byte 1 2024-01-19 14 Download
980 guge 175 Byte 1 2024-01-19 5 Download
981 hangout 184 Byte 1 2024-01-19 5 Download
982 hdfc 175 Byte 1 2024-01-19 14 Download
983 hgtv 175 Byte 1 2024-01-19 14 Download
984 hkt 172 Byte 1 2024-01-19 4 Download
985 hot 172 Byte 1 2024-01-19 13 Download
986 hotels 181 Byte 1 2024-01-19 13 Download
987 icbc 175 Byte 1 2024-01-19 5 Download
988 jnj 172 Byte 1 2024-01-19 5 Download
989 joy 172 Byte 1 2024-01-19 4 Download
990 kinder 181 Byte 1 2024-01-19 14 Download
991 kosher 181 Byte 1 2024-01-19 4 Download
992 lacaixa 184 Byte 1 2024-01-19 5 Download
993 lamer 178 Byte 1 2024-01-19 4 Download
994 lds 172 Byte 1 2024-01-19 4 Download
995 lifestyle 190 Byte 1 2024-01-19 4 Download
996 like 175 Byte 1 2024-01-19 6 Download
997 living 181 Byte 1 2024-01-19 4 Download
998 lpl 172 Byte 1 2024-01-19 15 Download
999 lplfinancial 199 Byte 1 2024-01-19 15 Download
1000 map 172 Byte 1 2024-01-19 16 Download
1001 merckmsd 187 Byte 1 2024-01-19 15 Download
1002 mitsubishi 193 Byte 1 2024-01-19 14 Download
1003 mormon 181 Byte 1 2024-01-19 5 Download
1004 msd 172 Byte 1 2024-01-19 14 Download
1005 nowtv 178 Byte 1 2024-01-19 5 Download
1006 obi 172 Byte 1 2024-01-19 4 Download
1007 pars 175 Byte 1 2024-01-19 4 Download
1008 pay 172 Byte 1 2024-01-19 15 Download
1009 pccw 175 Byte 1 2024-01-19 5 Download
1010 pid 172 Byte 1 2024-01-19 4 Download
1011 play 175 Byte 1 2024-01-19 5 Download
1012 playstation 196 Byte 1 2024-01-19 3 Download
1013 pohl 175 Byte 1 2024-01-19 5 Download
1014 reliance 187 Byte 1 2024-01-19 16 Download
1015 richardli 190 Byte 1 2024-01-19 5 Download
1016 ril 172 Byte 1 2024-01-19 15 Download
1017 rocher 181 Byte 1 2024-01-19 14 Download
1018 safety 181 Byte 1 2024-01-19 4 Download
1019 sca 172 Byte 1 2024-01-19 14 Download
1020 scholarships 199 Byte 1 2024-01-19 4 Download
1021 search 181 Byte 1 2024-01-19 16 Download
1022 shia 175 Byte 1 2024-01-19 5 Download
1023 shouji 181 Byte 1 2024-01-19 6 Download
1024 sina 175 Byte 1 2024-01-19 4 Download
1025 staples 184 Byte 1 2024-01-19 16 Download
1026 star 175 Byte 1 2024-01-19 5 Download
1027 stcgroup 187 Byte 1 2024-01-19 6 Download
1028 tab 172 Byte 1 2024-01-19 5 Download
1029 talk 175 Byte 1 2024-01-19 5 Download
1030 tci 172 Byte 1 2024-01-19 4 Download
1031 tiffany 184 Byte 1 2024-01-19 5 Download
1032 travelchannel 202 Byte 1 2024-01-19 17 Download
1033 tunes 178 Byte 1 2024-01-19 4 Download
1034 vana 175 Byte 1 2024-01-19 6 Download
1035 ve 172 Byte 1 2024-01-19 17 Download
1036 verisign 187 Byte 1 2024-01-19 5 Download
1037 virgin 181 Byte 1 2024-01-19 4 Download
1038 viva 175 Byte 1 2024-01-19 4 Download
1039 walter 181 Byte 1 2024-01-19 4 Download
1040 weather 184 Byte 1 2024-01-19 4 Download
1041 weatherchannel 205 Byte 1 2024-01-19 5 Download
1042 weibo 178 Byte 1 2024-01-19 5 Download
1043 winners 184 Byte 1 2024-01-19 5 Download
1044 wow 172 Byte 1 2024-01-19 5 Download
1045 wtc 172 Byte 1 2024-01-19 5 Download
1046 xerox 178 Byte 1 2024-01-19 5 Download
1047 xihuan 181 Byte 1 2024-01-19 5 Download
1048 xn--11b4c3d (कॉम) 196 Byte 1 2024-01-19 4 Download
1049 xn--3pxu8k (点看) 193 Byte 1 2024-01-19 5 Download
1050 xn--42c2d9a (คอม) 196 Byte 1 2024-01-19 4 Download
1051 xn--9krt00a (微博) 196 Byte 1 2024-01-19 5 Download
1052 xn--c2br7g (नेट) 193 Byte 1 2024-01-19 4 Download
1053 xn--cg4bki (삼성) 193 Byte 1 2024-01-19 5 Download
1054 xn--fhbei (كوم) 190 Byte 1 2024-01-19 4 Download
1055 xn--flw351e (谷歌) 196 Byte 1 2024-01-19 5 Download
1056 xn--fzys8d69uvgm (電訊盈科) 211 Byte 1 2024-01-19 5 Download
1057 xn--j1aef (ком) 190 Byte 1 2024-01-19 19 Download
1058 xn--mgbaakc7dvf (اتصالات) 208 Byte 1 2024-01-19 5 Download
1059 xn--mgbt3dhd (همراه) 199 Byte 1 2024-01-19 4 Download
1060 xn--ngbrx (عرب) 190 Byte 1 2024-01-19 5 Download
1061 xn--pssy2u (大拿) 193 Byte 1 2024-01-19 6 Download
1062 xn--qcka1pmc (グーグル) 199 Byte 1 2024-01-19 5 Download
1063 you 172 Byte 1 2024-01-19 6 Download
1064 yun 172 Byte 1 2024-01-19 4 Download
1065 xn--6qq986b (我你) 204 Byte 1 2024-01-19 14 Download
1066 adac 175 Byte 1 2024-01-19 3 Download
1067 budapest 187 Byte 1 2024-01-19 5 Download